GEC105 EDDF-EDDH

Flight info

Callsign GEC105
Flight time 0h 51m
Altitude 29000
Route MARUN7F/25C MARUN Y150 TOLGI DCT SAS/N0456F300 P605 NOLGO NOLGO6A
Aircraft B77L/H-SDE1E2E3FGHIJ2J3J4J5M1RWXY/LB1D1

Departure

Time 2026-05-06 15:34
Airport Frankfurt Main Airport (EDDF)

Arrival

Time 2026-05-06 16:25
Airport Hamburg Helmut Schmidt Airport (EDDH)
Time Latitude Longitude Altitude Speed Heading
2026-05-06 14:57 50.03755 8.53224 347 ft 0 kts 339°
2026-05-06 15:20 50.03752 8.53226 347 ft 3 kts 339°
2026-05-06 15:20 50.03734 8.53236 357 ft 3 kts 339°
2026-05-06 15:20 50.03717 8.53246 357 ft 3 kts 340°
2026-05-06 15:20 50.03700 8.53256 356 ft 3 kts 350°
2026-05-06 15:21 50.03681 8.53257 356 ft 3 kts 11°
2026-05-06 15:21 50.03663 8.53249 356 ft 3 kts 30°
2026-05-06 15:21 50.03649 8.53233 356 ft 3 kts 48°
2026-05-06 15:21 50.03638 8.53210 355 ft 2 kts 65°
2026-05-06 15:22 50.03633 8.53193 355 ft 0 kts 65°
2026-05-06 15:24 50.03642 8.53222 357 ft 11 kts 65°
2026-05-06 15:24 50.03689 8.53400 351 ft 19 kts 69°
2026-05-06 15:25 50.03689 8.53551 356 ft 14 kts 137°
2026-05-06 15:25 50.03580 8.53532 355 ft 20 kts 204°
2026-05-06 15:25 50.03493 8.53500 347 ft 8 kts 144°
2026-05-06 15:25 50.03491 8.53614 344 ft 14 kts 72°
2026-05-06 15:26 50.03535 8.53792 352 ft 21 kts 69°
2026-05-06 15:26 50.03592 8.54033 352 ft 27 kts 70°
2026-05-06 15:26 50.03658 8.54310 351 ft 24 kts 69°
2026-05-06 15:26 50.03723 8.54579 359 ft 29 kts 69°
2026-05-06 15:27 50.03799 8.54889 362 ft 33 kts 69°
2026-05-06 15:27 50.03864 8.55169 358 ft 28 kts 69°
2026-05-06 15:27 50.03934 8.55464 360 ft 27 kts 70°
2026-05-06 15:27 50.04005 8.55756 359 ft 31 kts 68°
2026-05-06 15:28 50.04076 8.56047 362 ft 29 kts 70°
2026-05-06 15:28 50.04139 8.56315 360 ft 22 kts 70°
2026-05-06 15:28 50.04194 8.56546 363 ft 23 kts 70°
2026-05-06 15:28 50.04247 8.56775 367 ft 22 kts 70°
2026-05-06 15:29 50.04301 8.57000 369 ft 23 kts 69°
2026-05-06 15:29 50.04358 8.57237 371 ft 23 kts 69°
2026-05-06 15:29 50.04417 8.57483 368 ft 25 kts 70°
2026-05-06 15:29 50.04477 8.57740 372 ft 25 kts 70°
2026-05-06 15:30 50.04538 8.57997 372 ft 26 kts 70°
2026-05-06 15:30 50.04569 8.58137 370 ft 0 kts 71°
2026-05-06 15:30 50.04595 8.58241 374 ft 16 kts 69°
2026-05-06 15:30 50.04633 8.58403 374 ft 16 kts 70°
2026-05-06 15:31 50.04633 8.58556 376 ft 13 kts 133°
2026-05-06 15:31 50.04549 8.58618 377 ft 13 kts 163°
2026-05-06 15:31 50.04480 8.58565 378 ft 8 kts 245°
2026-05-06 15:32 50.04476 8.58552 380 ft 0 kts 247°
2026-05-06 15:33 50.04470 8.58528 379 ft 11 kts 247°
2026-05-06 15:33 50.04383 8.58167 377 ft 70 kts 250°
2026-05-06 15:33 50.04134 8.57121 371 ft 131 kts 250°
2026-05-06 15:34 50.03781 8.55578 450 ft 166 kts 251°
2026-05-06 15:34 50.03376 8.53876 960 ft 169 kts 252°
2026-05-06 15:34 50.02976 8.52152 1565 ft 174 kts 251°
2026-05-06 15:34 50.02635 8.50355 2034 ft 176 kts 273°
2026-05-06 15:35 50.02822 8.48415 2304 ft 190 kts 278°
2026-05-06 15:35 50.03000 8.46308 2742 ft 200 kts 276°
2026-05-06 15:35 50.03171 8.44130 3259 ft 205 kts 276°
2026-05-06 15:35 50.03611 8.42061 3906 ft 207 kts 303°
2026-05-06 15:36 50.04697 8.40374 4222 ft 237 kts 319°
2026-05-06 15:36 50.06089 8.38742 4622 ft 259 kts 321°
2026-05-06 15:36 50.07560 8.37043 5384 ft 266 kts 320°
2026-05-06 15:36 50.09063 8.35288 6155 ft 273 kts 320°
2026-05-06 15:37 50.10605 8.33570 6964 ft 275 kts 329°
2026-05-06 15:37 50.12492 8.32841 7565 ft 288 kts
2026-05-06 15:37 50.14452 8.33473 8307 ft 290 kts 15°
2026-05-06 15:37 50.16405 8.34406 8991 ft 295 kts 15°
2026-05-06 15:38 50.18378 8.35368 9743 ft 299 kts 15°
2026-05-06 15:38 50.20383 8.36345 10299 ft 309 kts 15°
2026-05-06 15:38 50.22519 8.37374 10503 ft 333 kts 15°
2026-05-06 15:38 50.24814 8.38467 10701 ft 357 kts 15°
2026-05-06 15:39 50.27226 8.39612 11101 ft 373 kts 15°
2026-05-06 15:39 50.29732 8.40810 11887 ft 380 kts 16°
2026-05-06 15:39 50.32244 8.42133 12834 ft 383 kts 18°
2026-05-06 15:39 50.34768 8.43533 13762 ft 387 kts 18°
2026-05-06 15:40 50.37328 8.44961 14497 ft 393 kts 18°
2026-05-06 15:40 50.39930 8.46403 15253 ft 399 kts 18°
2026-05-06 15:40 50.42567 8.47853 15972 ft 405 kts 18°
2026-05-06 15:40 50.45251 8.49322 16676 ft 413 kts 18°
2026-05-06 15:41 50.47991 8.50818 17390 ft 420 kts 18°
2026-05-06 15:41 50.50798 8.52229 18087 ft 426 kts 16°
2026-05-06 15:41 50.53658 8.53573 18753 ft 430 kts 15°
2026-05-06 15:41 50.56535 8.54909 19452 ft 433 kts 15°
2026-05-06 15:42 50.59435 8.56267 20134 ft 437 kts 15°
2026-05-06 15:42 50.62360 8.57656 20782 ft 441 kts 15°
2026-05-06 15:42 50.65307 8.59070 21401 ft 446 kts 15°
2026-05-06 15:42 50.68248 8.60487 22025 ft 450 kts 15°
2026-05-06 15:43 50.71260 8.61940 22671 ft 454 kts 15°
2026-05-06 15:43 50.74299 8.63409 23294 ft 458 kts 14°
2026-05-06 15:43 50.77364 8.64895 23807 ft 463 kts 14°
2026-05-06 15:43 50.80416 8.66545 24232 ft 468 kts 23°
2026-05-06 15:44 50.83169 8.69365 24587 ft 478 kts 42°
2026-05-06 15:44 50.85314 8.73374 25121 ft 477 kts 54°
2026-05-06 15:44 50.87247 8.77662 25580 ft 481 kts 54°
2026-05-06 15:44 50.89227 8.81973 26095 ft 484 kts 54°
2026-05-06 15:45 50.91243 8.86243 26818 ft 482 kts 53°
2026-05-06 15:45 50.93264 8.90460 27618 ft 479 kts 53°
2026-05-06 15:45 50.95281 8.94666 28333 ft 478 kts 54°
2026-05-06 15:45 50.97286 8.98879 28841 ft 480 kts 54°
2026-05-06 15:46 51.01292 9.07352 28789 ft 477 kts 54°
2026-05-06 15:46 51.05241 9.15729 28802 ft 477 kts 54°
2026-05-06 15:47 51.09327 9.24011 28796 ft 476 kts 45°
2026-05-06 15:47 51.11932 9.27261 28800 ft 477 kts 31°
2026-05-06 15:47 51.14904 9.29578 28808 ft 476 kts 18°
2026-05-06 15:48 51.21360 9.31827 28803 ft 476 kts
2026-05-06 15:48 51.27886 9.33890 28803 ft 480 kts 10°
2026-05-06 15:49 51.34426 9.36162 28809 ft 481 kts 11°
2026-05-06 15:49 51.40962 9.38466 28804 ft 480 kts 11°
2026-05-06 15:50 51.47467 9.40754 28799 ft 477 kts 11°
2026-05-06 15:50 51.53874 9.43008 28811 ft 473 kts 11°
2026-05-06 15:51 51.60291 9.45271 28802 ft 470 kts 11°
2026-05-06 15:51 51.66657 9.47523 28804 ft 467 kts 11°
2026-05-06 15:52 51.72991 9.49770 28798 ft 465 kts 11°
2026-05-06 15:52 51.79263 9.52003 28791 ft 457 kts 11°
2026-05-06 15:53 51.85268 9.55150 28804 ft 454 kts 24°
2026-05-06 15:53 51.90900 9.59759 28816 ft 453 kts 27°
2026-05-06 15:54 51.96492 9.64487 28812 ft 453 kts 26°
2026-05-06 15:54 52.02099 9.69177 28816 ft 454 kts 26°
2026-05-06 15:55 52.07731 9.73864 28807 ft 455 kts 26°
2026-05-06 15:55 52.13360 9.78558 28809 ft 455 kts 26°
2026-05-06 15:56 52.18026 9.82461 28803 ft 447 kts 26°
2026-05-06 15:56 52.20749 9.84745 28794 ft 433 kts 26°
2026-05-06 15:56 52.23391 9.86947 28732 ft 421 kts 24°
2026-05-06 15:57 52.26970 9.89315 28167 ft 417 kts 15°
2026-05-06 15:57 52.29745 9.90571 27787 ft 412 kts 13°
2026-05-06 15:57 52.31615 9.91371 27491 ft 410 kts 13°
2026-05-06 15:57 52.34368 9.92540 27083 ft 407 kts 13°
2026-05-06 15:58 52.37094 9.93709 26670 ft 404 kts 13°
2026-05-06 15:58 52.39805 9.94887 26280 ft 401 kts 13°
2026-05-06 15:58 52.42492 9.96068 25869 ft 399 kts 13°
2026-05-06 15:58 52.45162 9.97248 25468 ft 397 kts 14°
2026-05-06 15:59 52.47808 9.98423 25049 ft 388 kts 14°
2026-05-06 15:59 52.50398 9.99574 24684 ft 385 kts 14°
2026-05-06 15:59 52.52940 10.00704 24305 ft 382 kts 14°
2026-05-06 15:59 52.55501 10.01844 23924 ft 380 kts 14°
2026-05-06 16:00 52.58051 10.02981 23557 ft 378 kts 14°
2026-05-06 16:00 52.60593 10.04117 23129 ft 377 kts 14°
2026-05-06 16:00 52.63117 10.05247 22699 ft 376 kts 14°
2026-05-06 16:00 52.65632 10.06374 22297 ft 373 kts 14°
2026-05-06 16:01 52.68129 10.07494 21914 ft 370 kts 14°
2026-05-06 16:01 52.70606 10.08606 21520 ft 368 kts 14°
2026-05-06 16:01 52.73068 10.09713 21147 ft 365 kts 14°
2026-05-06 16:01 52.75511 10.10811 20774 ft 363 kts 13°
2026-05-06 16:02 52.77972 10.11644 20393 ft 360 kts
2026-05-06 16:02 52.80450 10.11979 20028 ft 356 kts 360°
2026-05-06 16:02 52.82918 10.12070 19653 ft 354 kts 359°
2026-05-06 16:02 52.85373 10.12125 19284 ft 351 kts 359°
2026-05-06 16:03 52.87816 10.12177 18920 ft 349 kts 359°
2026-05-06 16:03 52.90234 10.12233 18548 ft 347 kts 359°
2026-05-06 16:03 52.92639 10.12296 18196 ft 345 kts 359°
2026-05-06 16:03 52.95034 10.12365 17778 ft 343 kts 359°
2026-05-06 16:04 52.97413 10.12436 17385 ft 340 kts 359°
2026-05-06 16:04 52.99767 10.12510 17025 ft 337 kts 359°
2026-05-06 16:04 53.02109 10.12583 16676 ft 336 kts 359°
2026-05-06 16:04 53.04441 10.12657 16297 ft 334 kts 359°
2026-05-06 16:05 53.06761 10.12731 15932 ft 332 kts 359°
2026-05-06 16:05 53.09033 10.12804 15608 ft 330 kts 359°
2026-05-06 16:05 53.11324 10.12878 15248 ft 328 kts 359°
2026-05-06 16:05 53.13597 10.12953 14907 ft 326 kts 359°
2026-05-06 16:06 53.15859 10.13026 14563 ft 324 kts 359°
2026-05-06 16:06 53.18111 10.13098 14203 ft 322 kts 360°
2026-05-06 16:06 53.20343 10.13169 13870 ft 320 kts 360°
2026-05-06 16:06 53.22561 10.13241 13524 ft 318 kts 360°
2026-05-06 16:07 53.24764 10.13313 13153 ft 316 kts
2026-05-06 16:07 53.26974 10.13385 12795 ft 317 kts
2026-05-06 16:07 53.29184 10.13456 12457 ft 319 kts
2026-05-06 16:07 53.31411 10.13528 12134 ft 321 kts
2026-05-06 16:08 53.33642 10.13601 11802 ft 319 kts
2026-05-06 16:08 53.35601 10.13665 11517 ft 316 kts
2026-05-06 16:08 53.37793 10.13703 11172 ft 311 kts 356°
2026-05-06 16:08 53.39862 10.12775 10819 ft 310 kts 331°
2026-05-06 16:09 53.41529 10.10592 10533 ft 309 kts 313°
2026-05-06 16:09 53.42953 10.07900 10231 ft 308 kts 311°
2026-05-06 16:09 53.44373 10.05213 9897 ft 306 kts 312°
2026-05-06 16:09 53.45786 10.02568 9583 ft 303 kts 312°
2026-05-06 16:10 53.47194 9.99948 9231 ft 301 kts 312°
2026-05-06 16:10 53.48312 9.97050 8829 ft 294 kts 289°
2026-05-06 16:10 53.48534 9.93727 8498 ft 286 kts 261°
2026-05-06 16:10 53.47979 9.90569 8446 ft 286 kts 244°
2026-05-06 16:11 53.46857 9.87777 8318 ft 292 kts 229°
2026-05-06 16:11 53.45530 9.85158 8032 ft 297 kts 228°
2026-05-06 16:11 53.44178 9.82544 7830 ft 295 kts 229°
2026-05-06 16:11 53.42851 9.79937 7645 ft 292 kts 229°
2026-05-06 16:12 53.41551 9.77359 7446 ft 288 kts 229°
2026-05-06 16:12 53.40279 9.74827 7243 ft 279 kts 229°
2026-05-06 16:12 53.39048 9.72370 7069 ft 272 kts 229°
2026-05-06 16:12 53.37845 9.69970 6872 ft 266 kts 229°
2026-05-06 16:13 53.36674 9.67632 6685 ft 258 kts 230°
2026-05-06 16:13 53.35534 9.65362 6516 ft 251 kts 229°
2026-05-06 16:13 53.34442 9.63187 6354 ft 244 kts 229°
2026-05-06 16:13 53.33362 9.61037 6200 ft 239 kts 229°
2026-05-06 16:14 53.32288 9.58900 6146 ft 241 kts 229°
2026-05-06 16:14 53.31210 9.56763 6010 ft 238 kts 229°
2026-05-06 16:14 53.30236 9.54600 5876 ft 227 kts 245°
2026-05-06 16:14 53.29970 9.52083 5753 ft 219 kts 280°
2026-05-06 16:15 53.30461 9.49783 5685 ft 204 kts 304°
2026-05-06 16:15 53.31370 9.48048 5527 ft 195 kts 322°
2026-05-06 16:15 53.32402 9.46587 5445 ft 194 kts 323°
2026-05-06 16:15 53.33448 9.45142 5362 ft 195 kts 326°
2026-05-06 16:16 53.34658 9.44300 5194 ft 188 kts
2026-05-06 16:16 53.35886 9.44796 5132 ft 181 kts 32°
2026-05-06 16:16 53.36781 9.46229 5048 ft 178 kts 51°
2026-05-06 16:16 53.37585 9.47831 5025 ft 180 kts 50°
2026-05-06 16:17 53.38390 9.49414 4990 ft 178 kts 50°
2026-05-06 16:17 53.39200 9.50967 4891 ft 176 kts 49°
2026-05-06 16:17 53.39998 9.52517 4812 ft 175 kts 50°
2026-05-06 16:17 53.40785 9.54068 4740 ft 175 kts 50°
2026-05-06 16:18 53.41572 9.55629 4735 ft 176 kts 51°
2026-05-06 16:18 53.42374 9.57231 4694 ft 181 kts 51°
2026-05-06 16:18 53.43186 9.58853 4635 ft 182 kts 51°
2026-05-06 16:18 53.43998 9.60481 4552 ft 181 kts 51°
2026-05-06 16:19 53.44797 9.62087 4470 ft 178 kts 52°
2026-05-06 16:19 53.45592 9.63681 4334 ft 177 kts 51°
2026-05-06 16:19 53.46373 9.65248 4215 ft 173 kts 51°
2026-05-06 16:19 53.47151 9.66810 4123 ft 176 kts 51°
2026-05-06 16:20 53.47944 9.68402 4087 ft 178 kts 50°
2026-05-06 16:20 53.48734 9.69989 4082 ft 177 kts 50°
2026-05-06 16:20 53.49531 9.71592 3915 ft 180 kts 50°
2026-05-06 16:20 53.50331 9.73200 3667 ft 178 kts 51°
2026-05-06 16:21 53.51101 9.74749 3436 ft 171 kts 50°
2026-05-06 16:21 53.51854 9.76261 3226 ft 163 kts 50°
2026-05-06 16:21 53.52549 9.77660 3028 ft 153 kts 51°
2026-05-06 16:21 53.53207 9.78988 2795 ft 142 kts 51°
2026-05-06 16:22 53.53833 9.80248 2596 ft 140 kts 50°
2026-05-06 16:22 53.54461 9.81510 2427 ft 142 kts 51°
2026-05-06 16:22 53.55088 9.82776 2230 ft 140 kts 50°
2026-05-06 16:22 53.55711 9.84034 2054 ft 141 kts 50°
2026-05-06 16:23 53.56339 9.85298 1841 ft 140 kts 51°
2026-05-06 16:23 53.56957 9.86547 1641 ft 140 kts 50°
2026-05-06 16:23 53.57584 9.87811 1468 ft 141 kts 51°
2026-05-06 16:23 53.58214 9.89085 1257 ft 142 kts 50°
2026-05-06 16:24 53.58848 9.90365 1063 ft 143 kts 50°
2026-05-06 16:24 53.59481 9.91642 844 ft 140 kts 50°
2026-05-06 16:24 53.60108 9.92913 675 ft 142 kts 50°
2026-05-06 16:24 53.60744 9.94223 479 ft 148 kts 49°
2026-05-06 16:25 53.61423 9.95545 261 ft 148 kts 51°
2026-05-06 16:25 53.62069 9.96872 96 ft 145 kts 50°
2026-05-06 16:25 53.62677 9.98094 53 ft 116 kts 50°
2026-05-06 16:25 53.63031 9.98813 47 ft 29 kts 50°
2026-05-06 16:26 53.63090 9.99099 52 ft 16 kts 88°
2026-05-06 16:26 53.63089 9.99133 51 ft 1 kts 92°
2026-05-06 16:26 53.63088 9.99153 51 ft 2 kts 92°
2026-05-06 16:26 53.63086 9.99182 50 ft 3 kts 101°
2026-05-06 16:27 53.63057 9.99245 50 ft 10 kts 156°
2026-05-06 16:27 53.63005 9.99195 49 ft 9 kts 229°
2026-05-06 16:27 53.62963 9.99113 51 ft 9 kts 231°
2026-05-06 16:27 53.62923 9.99028 51 ft 9 kts 230°
2026-05-06 16:28 53.62878 9.98947 51 ft 10 kts 221°
2026-05-06 16:28 53.62815 9.98945 49 ft 10 kts 155°
2026-05-06 16:28 53.62760 9.98997 47 ft 7 kts 128°
2026-05-06 16:28 53.62764 9.99082 51 ft 8 kts 68°
2026-05-06 16:29 53.62775 9.99114 52 ft 0 kts 62°